GSAT0216 (GALILEO 20)

Last updated on Sat Apr 11 2026 00:02:39 GMT+0000 (Coordinated Universal Time)

1 43056U 17079B 26099.09013368 .00000004 00000+0 00000+0 0 9990 2 43056 55.0946 223.4066 0002263 294.4947 65.4603 1.70474884 51827
UTC large
Height (km)
Speed (km/s)
/
Latitude / Longitude
Inclination (degrees)
Orbital Period (minutes)
Azimuth
Elevation
Range (km)
Doppler Factor

Next 0 passes for location: London (51.5072 / 0.1276)

Sorry there are no passes over London.
GSAT0216 (GALILEO 20)